Home   Weather   Frankfort   Past weeks

Flag for USA Past Weather in Frankfort, Kentucky, USA — Yesterday and Last 2 Weeks

Now
74 °F

Clear.


Feels Like: 77 °F
Forecast: 53 / 72 °F
Wind: 6 mph from Southeast

Location: Capital City Airport

Current Time: Apr 26, 2017 at 9:33:19 pm

Latest Report: Apr 26, 2017 at 8:53 pm


Visibility: 10 mi

Pressure: 29.56 "Hg

Humidity: 46%

Dew Point: 52 °F

Location of FrankfortLocation

Past Weather in Frankfort — Graph

°F

Frankfort Temperature Yesterday

Maximum temperature yesterday: 75 °F (at 5:53 pm)
Minimum temperature yesterday: 51 °F (at 5:53 am)
Average temperature yesterday: 64 °F

High & Low Weather Summary for the Past Weeks

 TemperatureHumidityPressure
High83 °F (Apr 14, 4:53 pm)90% (Apr 16, 11:53 pm)30.37 "Hg (Apr 16, 11:53 pm)
Low45 °F (Apr 13, 6:53 am)19% (Apr 13, 3:53 pm)29.57 "Hg (Apr 26, 7:53 pm)
Average64 °F63%30.03 "Hg
* Reported Apr 11 7:13 pm — Apr 26 7:53 pm, Frankfort, Weather by CustomWeather, © 2017

Note: Actual official high and low records may vary slightly from our data, if they occured in-between our weather recording intervals... More about our weather records

Advertising

Frankfort Weather History for the Previous 24 Hours

Scroll right to see more
 ConditionsComfort  
Time TempWeatherWind HumidityBarometerVisibility
7:53 pm
Wed, Apr 26
78 °FSunny.5 mph39%29.57 "Hg10 mi
6:53 pm81 °FSunny.12 mph34%29.58 "Hg10 mi
5:53 pm82 °FSunny.15 mph28%29.58 "Hg10 mi
4:53 pm83 °FSunny.13 mph34%29.59 "Hg10 mi
3:53 pm83 °FSunny.16 mph38%29.61 "Hg10 mi
2:53 pm81 °FSunny.16 mph45%29.63 "Hg10 mi
1:53 pm80 °FSunny.14 mph49%29.65 "Hg10 mi
12:53 pm78 °FSunny.10 mph50%29.67 "Hg10 mi
11:53 am76 °FSunny.10 mph54%29.68 "Hg10 mi
10:53 am73 °FSunny.6 mph57%29.69 "Hg10 mi
9:53 am70 °FSunny.12 mph61%29.70 "Hg10 mi
8:53 am65 °FSunny.10 mph70%29.71 "Hg10 mi
7:53 am59 °FSunny.7 mph84%29.70 "Hg10 mi
6:53 am56 °FSunny.5 mph87%29.70 "Hg10 mi
5:53 am54 °FClear.No wind86%29.69 "Hg10 mi
4:53 am56 °FClear.No wind87%29.68 "Hg10 mi
3:53 am56 °FClear.No wind81%29.67 "Hg10 mi
2:53 am57 °FClear.No wind83%29.67 "Hg10 mi
1:53 am60 °FClear.6 mph80%29.67 "Hg10 mi
12:53 am61 °FClear.6 mph75%29.68 "Hg10 mi
11:53 pm
Tue, Apr 25
63 °FClear.6 mph73%29.68 "Hg10 mi
10:53 pm64 °FClear.5 mph70%29.68 "Hg10 mi
9:53 pm66 °FClear.5 mph65%29.68 "Hg10 mi
Weather by CustomWeather, © 2017

See weather overviewHow to use our weather pages